Regional Weather Roundup
Issued by NWS Sioux Falls, SD

Home | Current Version | Previous Version | Text Only | Print | Product List | Glossary On
Versions: 1 2 3 4 5 6 7 8 9 10 11 12 13 14 15 16 17 18 19 20 21 22 23 24 25 26 27 28 29 30 31 32 33 34 35 36 37 38 39 40 41 42 43 44 45 46 47 48 49 50
000
ASUS43 KFSD 220602
RWRFSD

WEATHER ROUNDUP FOR SE SOUTH DAKOTA/SW MINNESOTA/NW IOWA
NATIONAL WEATHER SERVICE SIOUX FALLS SD
100 AM CDT TUE JUL 22 2014

NOTE: "FAIR" INDICATES FEW OR NO CLOUDS BELOW 12,000 FEET WITH NO
SIGNIFICANT WEATHER AND OR OBSTRUCTIONS TO VISIBILITY.


SDZ038>040-050-052>070-220700-
SOUTHEAST SOUTH DAKOTA

CITY           SKY/WX    TMP DP  RH WIND       PRES   REMARKS
CHAMBERLAIN    CLEAR     77  66  69 N10       29.90R
6HR MIN TEMP:  77; 6HR MAX TEMP: 101;

HURON          CLEAR     70  62  76 N12       29.86R
6HR MIN TEMP:  70; 6HR MAX TEMP:  92;

MADISON        FAIR      75  75 100 W6        29.86R
MITCHELL       CLEAR     76  69  79 NW8       29.86R
6HR MIN TEMP:  76; 6HR MAX TEMP:  93;

SIOUX FALLS    CLEAR     78  76  93 CALM      29.84R
6HR MIN TEMP:  78; 6HR MAX TEMP:  87;

WINNER         FAIR      78  60  53 N6        29.95R
YANKTON        PTCLDY    77  75  94 S7        29.84R
$$

MNZ071-072-080-081-089-090-097-098-220700-
SOUTHWEST MINNESOTA

CITY           SKY/WX    TMP DP  RH WIND       PRES   REMARKS
FAIRMONT       PTCLDY    81  73  78 S13G18    29.84R
LUVERNE        CLEAR     73  72  94 CALM      29.86R FOG
MARSHALL       PTCLDY    81  75  83 SW10      29.79S
6HR MIN TEMP:  79; 6HR MAX TEMP:  84;

MONTEVIDEO     CLOUDY    77  72  83 N13G18    29.83R
PIPESTONE      CLEAR     79  75  89 SW6       29.85S
REDWOOD FALLS  PTCLDY    79  76  90 S13       29.78R
TRACY          CLEAR     80  76  89 SW12G17   29.82S
WINDOM         CLEAR     81  77  89 S8        29.84R
WORTHINGTON    CLEAR     79  75  89 SW12      29.86R
$$

IAZ001>003-012>014-020>022-031-032-NEZ013-014-SDZ071-220700-
NORTHWEST IOWA

CITY           SKY/WX    TMP DP  RH WIND       PRES   REMARKS
CHEROKEE       PTCLDY    79  78  96 S6        29.84S
DENISON        CLOUDY    81  77  89 S8        29.86R
ESTHERVILLE    PTCLDY    79  76  90 S13       29.84R
LE MARS        CLEAR     77  77 100 S6        29.83S
ORANGE CITY    CLEAR     79  73  83 S5        29.85R
SHELDON        CLEAR     77  77 100 S5        29.83S FOG
SIOUX CITY     PTCLDY    81  76  84 S6        29.83R
6HR MIN TEMP:  80; 6HR MAX TEMP:  92;

SPENCER        PTCLDY    79  76  90 S7        29.85R
6HR MIN TEMP:  79; 6HR MAX TEMP:  85;

STORM LAKE     MOCLDY    79  79 100 S9        29.88R
$$

ABBREVIATIONS USED IN REMARKS
   TC - TEMPERATURE IN CELSIUS
  WCI - WIND CHILL INDEX
   HX - HEAT INDEX
  VSB - VISIBILITY




USA.gov is the U.S. government's official web portal to all federal, state and local government web resources and services.